RH
24 26 27 26 26 26 27 30 33 37 41 43 47 49 49 53 57 53 51 51 47 44 44 44 42 42 45 46 42 39 37 35 32 30 27 25 23 21 19 19 19 18
28 30 30 28 28 30 32 35 37 39 42 44 47 49 51 55 60 58 55 54 51 47 45 45 44 44 47 51 48 44 42 42 39 36 32 29 28 26 23 22 22 21
31 30 30 30 32 34 36 38 41 42 44 45 47 49 51 56 61 61 60 59 56 52 47 46 46 46 49 54 55 51 48 48 46 43 40 37 34 32 29 28 27 26
31 30 32 34 35 37 39 41 43 45 46 47 47 47 50 56 61 63 64 65 66 63 57 53 52 52 54 57 61 60 56 54 52 50 48 45 42 39 37 35 33 31
32 33 34 35 37 39 40 42 44 45 46 46 46 47 49 53 58 64 70 73 75 74 71 67 64 62 61 62 65 66 64 62 59 57 54 52 49 47 45 42 39 37
33 34 34 36 38 40 41 43 43 44 45 45 44 46 50 53 56 63 72 78 79 79 79 78 74 69 65 66 69 69 68 67 65 62 61 58 55 53 51 48 44 43
34 35 36 37 38 39 41 42 42 42 44 44 43 45 51 56 58 62 69 77 81 81 81 81 80 76 71 70 70 69 68 67 66 65 65 63 60 58 56 53 50 49
35 36 37 37 36 37 38 39 40 42 44 45 47 48 51 55 59 62 66 72 79 81 82 82 82 81 78 75 73 72 71 69 68 68 68 66 65 63 61 59 56 55
37 38 38 36 36 39 41 41 41 43 45 48 50 53 54 56 59 61 62 67 75 81 83 84 84 83 82 80 78 77 76 75 75 74 73 71 69 67 66 64 62 59
39 40 40 39 41 45 45 45 45 46 47 50 52 54 57 59 61 63 64 66 72 79 83 86 87 86 85 84 84 83 82 80 80 79 77 76 74 72 70 69 65 62
40 41 42 44 47 48 48 49 50 51 51 51 53 56 58 59 62 66 68 69 72 78 82 85 87 89 88 89 88 87 86 85 84 83 82 81 79 76 74 71 67 63
41 43 46 49 50 49 50 51 53 55 56 55 55 57 59 60 61 64 68 72 75 79 81 83 85 86 87 88 88 88 88 87 86 86 85 84 82 80 78 74 68 63
44 46 49 51 51 51 52 52 53 54 56 57 58 60 62 63 62 64 67 71 74 77 78 80 80 82 83 85 85 86 86 87 88 87 86 84 82 81 79 76 71 66
46 49 52 52 51 51 53 53 53 54 57 61 63 65 66 67 67 68 70 72 74 75 76 77 77 79 80 82 83 84 85 86 86 85 82 80 78 76 74 72 68 65
48 51 53 53 50 50 53 54 53 55 60 64 66 67 67 67 67 69 71 72 73 75 75 76 77 78 79 80 81 82 83 82 81 79 76 74 72 69 67 64 62 62
50 53 55 54 51 52 53 54 54 57 61 65 66 67 67 65 65 67 68 69 72 74 76 77 78 79 80 80 81 81 80 79 76 74 71 70 69 68 68 66 64 64
50 54 56 55 53 53 53 54 56 59 62 65 67 66 65 65 64 64 65 66 68 71 74 76 77 79 80 80 80 80 79 78 77 74 73 72 72 73 74 74 74 74
48 52 54 53 52 51 52 55 58 61 63 65 66 65 64 62 62 62 63 65 67 68 70 73 74 77 78 79 79 79 79 79 80 78 76 76 77 78 79 81 84 85
47 49 50 50 50 50 52 57 63 65 66 66 65 63 63 62 62 62 63 64 65 65 67 69 72 74 76 77 78 78 79 82 82 80 78 79 81 83 84 86 88 88
45 47 47 47 48 50 54 60 65 67 67 67 65 64 65 64 64 64 64 64 64 64 65 67 70 73 74 75 77 78 80 83 82 80 80 81 83 86 87 88 88 87
44 44 44 45 48 51 55 61 67 69 69 68 67 67 68 67 65 65 65 65 66 66 67 69 71 72 73 74 77 78 80 83 82 81 82 83 85 87 89 89 88 88
42 42 42 44 48 51 55 61 68 71 70 68 69 70 69 67 66 66 67 67 68 69 69 70 72 73 74 76 78 80 82 85 86 85 85 86 87 89 90 92 92 92
42 41 41 43 48 52 54 60 69 73 71 70 70 70 69 68 68 69 68 68 68 68 69 70 72 73 76 78 79 81 84 88 89 90 90 91 92 93 93 94 94 94
43 42 42 44 48 51 52 57 66 73 73 70 70 70 69 68 69 69 68 67 67 69 70 71 72 74 75 77 79 81 85 89 91 94 95 97 97 96 96 97 97 98
43 43 43 44 47 51 52 54 62 71 72 70 70 70 69 68 69 69 69 68 69 70 71 72 73 74 75 77 80 83 87 90 93 95 96 97 97 97 98 100 101 101
44 43 43 44 46 49 50 51 59 69 72 71 70 70 69 69 70 70 71 71 71 72 73 74 74 75 77 80 83 85 88 91 93 93 94 95 96 97 98 99 100 100